Location: Cactus School
(34.5700°N, 118.0931°W)
Time: 23:07:50
(UTC-08:00)

OTV 5 (USA 277) - Pass Details

Date: 19 November 2017
Orbit: 404 x 417 km, 43.0° (Epoch: 07 September)

Event Time Altitude Azimuth Distance (km) Brightness Sun altitude
Exits shadow 04:21:27 18° 56° (ENE) 1,054 ? -26.4°
Drops below altitude 10° 04:22:45 10° 74° (ENE) 1,453 ? -26.1°
Sets 04:25:04 0° 88° (E) 2,310 ? -25.6°
